Location: N�rnberg
(49.4471°N, 11.0632°E)
Time: 21:18:01
(UTC+02:00)

VELOX 1 - Pass Details

Date: 25 April 2026
Orbit: 569 x 580 km, 98.3° (Epoch: 13 May)

Event Time Altitude Azimuth Distance (km) Brightness Sun altitude
Rises 01:05:10 0° 10° (N) 2,785 ? -27.4°
Reaches altitude 10° 01:07:21 10° 6° (N) 1,883 ? -27.4°
Enters shadow 01:10:26 44° 335° (NNW) 798 ? -27.4°
